Powrót do katalogu

DUMMY SAT 3/ORION

AktywnyNaukaGEO
NORAD 59479·PAYLOAD·🇷🇺 Russia

Wystrzelony Apr 11, 2024 z Vostochny Cosmodrome

Loading…

TLE

ŚwieżeSource: Space-Track

Epoka: Sep 14, 2026, 15:55 UTC

1 59479U 24069A   26257.66350484 -.00000053  00000-0  00000-0 0  9992
2 59479   2.3556  80.3141 0052442 137.0054 223.9901  0.98607386  8697

Śledź DUMMY SAT 3/ORION w czasie rzeczywistym z AllMySat

Download on the App Store